BEIDOU-3S IGSO-2S

Last updated on Thu Oct 30 2025 00:02:50 GMT+0000 (Coordinated Universal Time)

1 40938U 15053A 25302.34757705 -.00000133 00000+0 00000+0 0 9994 2 40938 49.5851 261.5325 0061383 189.6397 167.7742 1.00280539 37031
UTC large
Height (km)
Speed (km/s)
/
Latitude / Longitude
Inclination (degrees)
Orbital Period (minutes)
Azimuth
Elevation
Range (km)
Doppler Factor

Next 0 passes for location: London (51.5072 / 0.1276)

Sorry there are no passes over London.